Volver al catálogo

STARLINK-11599

ActivoComunicacionesVLEO
NORAD 63670·PAYLOAD·🇺🇸 United States

Lanzado Apr 28, 2025 desde Cape Canaveral Space Force Station

Loading…

Próximos Pases (próximas 24 horas)

TLE

ActualizadoSource: CelesTrak SupGP

Época: Sep 14, 2026, 21:30 UTC

1 63670C 25085G   26257.89631944  .00063355  00000+0  49211-3 0  2576
2 63670  43.0009 218.1044 0001438 263.1497 228.3159 15.70805605    16

Sigue STARLINK-11599 en tiempo real con AllMySat

Download on the App Store